User: anonymous   Login
Location: Unspecified
(0.0000°N, 0.0000°E)
Time: 09:16:31
(UTC+00:00)
Language:

SMS 1 - Orbit

View from above orbital plane
View from above orbital plane
View from above satellite
View from above satellite

Ground track
Ground track

The orbit data is extracted from the following two-line orbital elements,

1  7298U 74033A   17086.43827834 -.00000241 +00000-0 +00000-0 0  9992
2  7298 012.1891 307.3703 0019481 334.1638 200.7659 00.98614330086663
Epoch (UTC): 27 March 2017 10:31:07
Eccentricity: 0.0019481
inclination: 12.1891°
perigee height: 36174 km
apogee height: 36340 km
right ascension of ascending node: 307.3703°
argument of perigee: 334.1638°
revolutions per day: 0.98614330
mean anomaly at epoch: 200.7659°
orbit number at epoch: 8666

The dashed part of the orbit path shows where the satellite is in the earth's shadow,  

DLR